Regional Weather Roundup
Issued by NWS Portland, ME

Home | Current Version | Previous Version | Text Only | Print | Product List | Glossary On
Versions: 1 2 3 4 5 6 7 8 9 10 11 12 13 14 15 16 17 18 19 20 21 22 23 24 25 26 27 28 29 30 31 32 33 34 35 36 37 38 39 40 41 42 43 44 45 46 47 48 49 50
000
ASUS41 KGYX 192210
RWRGYX
WEATHER ROUNDUP FOR MAINE AND NEW HAMPSHIRE
NATIONAL WEATHER SERVICE GRAY ME
500 PM EST FRI JAN 19 2018

MEZ002-005-006-010-012-015-018-020-021-024-026-027-029-192300-
MAINE

CITY           SKY/WX    TMP DP  RH WIND       PRES   REMARKS
PORTLAND       CLOUDY    31  23  72 S3        29.92R
SANFORD        CLOUDY    30  22  72 SW6       29.91S
BAR HARBOR     CLOUDY    27  23  85 CALM      29.91R
WISCASSET      CLOUDY    30  24  78 CALM      29.92R
ROCKLAND       CLOUDY    29  24  82 CALM      29.91R
FRYEBURG       CLOUDY    28  24  85 CALM      29.87S
LEWISTONAUBURN CLOUDY    29  23  78 S5        29.89R
AUGUSTA        CLOUDY    30  20  66 S5        29.87S
WATERVILLE     CLOUDY    29  22  75 CALM      29.83S
BANGOR         CLOUDY    28  23  81 CALM      29.87S
GREENVILLE       N/A     24  19  81 S5        29.75F
MILLINOCKET    CLOUDY    28  21  75 CALM      29.83F
HOULTON        CLOUDY    23  19  85 S3        29.80F
PRESQUE ISLE   CLOUDY    22  18  85 SE7       29.80F
FRENCHVILLE    CLOUDY    18  15  88 SE7       29.73F
CARIBOU        CLOUDY    21  16  81 S6        29.77F
$$

NHZ002-005-008-009-011-012-014-192300-
NEW HAMPSHIRE

CITY           SKY/WX    TMP DP  RH WIND       PRES   REMARKS
PORTSMOUTH     CLOUDY    31  20  65 SW7       29.91R
ROCHESTER      CLOUDY    30  22  72 CALM      29.90R
MANCHESTER     CLOUDY    31  21  66 S3        29.91R
CONCORD        CLOUDY    30  20  66 CALM      29.91R
LACONIA        CLOUDY    28  21  75 S6        29.88F
PLYMOUTH       CLOUDY    28  21  75 CALM      29.86F
BERLIN         CLOUDY    26  22  84 CALM      29.81F
WHITEFIELD     CLOUDY    26  22  84 CALM      29.82F
JAFFREY        CLOUDY    29  21  72 VRB3      29.88R
KEENE          CLOUDY    29  22  75 SW6       29.90F
LEBANON        CLOUDY    29  20  69 SW5       29.87F
MT WASHINGTON  CLOUDY    18  10  73 W35         N/A  WCI  -3
$$

VTZ005-007-008-192300-
VERMONT

CITY           SKY/WX    TMP DP  RH WIND       PRES   REMARKS
ST JOHNSBURY     N/A     26  23  88 MISG      29.83F
MONTPELIER     CLOUDY    25  21  85 S5        29.85F
BURLINGTON     CLOUDY    28  18  66 S10       29.86R WCI  19
$$

MAZ007-012-024-CTZ003-RIZ002-NYZ038-NYZ072-192300-
SOUTHERN NEW ENGLAND AND NY

CITY           SKY/WX    TMP DP  RH WIND       PRES   REMARKS
BOSTON         CLOUDY    33  21  61 VRB5      29.95R
WORCESTER      CLOUDY    28  16  60 W7        29.90R
NANTUCKET      FAIR      31  24  75 W7        29.96S
PROVIDENCE     MOCLDY    34  19  54 W6        29.97R
HARTFORD       MOCLDY    32  20  61 W5        29.95S
ALBANY         MOCLDY    29  17  61 S3        29.94F
NEW YORK CITY  MOCLDY    38  17  42 SW8       29.98S
$$

ANZ081-ANZ082-ANZ150-NHZ014-MEZ023>029-192300-
COASTAL MARINE OBSERVATIONS

STATION/POSITION TIME  TEMP    WIND        PRES    WAVE
                       AIR SEA DIR/SP/G            HT/PER
                 (UTC) (F)     (DEG/KT/KT) (MB)    (FT/S)
MOUNT DESERT ROC 2200   30     220/  3/  3 1012.9F
MATINICUS ROCK   2200   31     290/  5/  6 1012.5R
ISLE OF SHOALS   2200   33     260/ 12/ 14 1013.3R
JEFFREYS LEDGE   2136      44                N/A     2/ 8
GEORGES BANK BUO 2050   36 58              1011.1   10/ 7
$$

.............KEY..............
   WCI - WIND CHILL
   TC  - TEMPERATURE IN CELSIUS
   VSB - VISIBILITY IN MILES
   HX  - HEAT INDEX
   FAIR- INDICATES FEW OR NO CLOUDS BELOW 12,000 FT, WITH NO
         SIGNIFICANT WEATHER AND/OR OBSTRUCTIONS TO VISIBILITY.






USA.gov is the U.S. government's official web portal to all federal, state and local government web resources and services.